星链-31008 (STARLINK-31008 )

导读 | 星芒AI

STARLINK-31008 是 SpaceX Starlink 项目中的一颗低轨通信卫星,属于第 12 批部署的星链卫星群。该卫星于 2023 年发射,运行在约 550 公里的轨道高度,旨在为全球用户提供高速互联网服务。作为星链网络的一部分,它支持宽带通信,提升偏远地区的网络覆盖。该卫星采用先进推进系统和激光通信技术,以提高效率并减少太空垃圾风险。

基本信息
目录编号:
58636
目录名称:
STARLINK-31008
国际标识:
2023-203U
轨道中心:
EARTH
卫星名称:
星链-31008
卫星全名:
星链-31008 (STARLINK-31008 )
卫星状态:
在轨 (已飞行678 天)
发射日期:
2023-12-23 UTC
国别 :
美国 (US)
星等 :
--
轨道信息
数据来源 国际轨道数据
星历时间: 2025-10-31T01:47:24+0800
19小时前
查看轨道信息
半长轴: 6861.202km
偏心率: 0.0000337
轨道倾角: 42.991°
近地点辐角 322.723°
升交点赤经 81.310°
平近点角 37.360°
近地点: 482.835km
远地点: 483.299km
周期: 94.267分钟
每日圈数: 15.275749
详细信息
固有亮度:
5
最大亮度:
0.3
卫星平台:
Starlink v2.0 mini
覆盖范围:
全球
运营商:
太空探索技术公司
运营商所在国:
美国
制造商(研发单位):
太空探索技术公司
制造商所在国:
美国
使用方式:
暂无
卫星简介
星链(Starlink)计划是由太空探索技术公司(SpaceX)提出的一个巨型低轨卫星互联网星座项目,计划在2019年至2024年间在太空搭建由约1.2万颗卫星组成的“星链”网络,其中1584颗将部署在地球上空550千米处的近地轨道,并从2020年开始工作。该卫星仍在工作。
2D轨道图
3D轨道图
轨道高度分析图
轨道倾角分析图
轨道综合分析图
查看轨道综合分析图